"Pseudo-MPEC" for C1FXP05

Created 2026 Aug 26 0:35:06 UT using Find_Orb

Click here for an explanation of pseudo-MPECs

 
 Astrometry: 
     C1FXP05*1C2026 08 23.41041722 41 06.065-12 28 17.22   ~8OFo 20.92GVNEOCPV00
     C1FXP05 1C2026 08 23.41599522 41 02.317-12 28 38.10   ~8OFo 20.83GVNEOCPV00
     C1FXP05 1C2026 08 23.42157522 40 58.616-12 28 58.76   ~8OFo 20.88GVNEOCPV00
     C1FXP05 1C2026 08 23.42715422 40 54.923-12 29 19.39   ~8OFo 20.50GVNEOCPV00
     C1FXP05 0C2026 08 23.44616022 40 42.420-12 30 29.00   ~8OFo 20.4 RVNEOCP291
     C1FXP05 0C2026 08 23.44766022 40 41.460-12 30 34.80   ~8OFo 20.7 RVNEOCP291
     C1FXP05 0C2026 08 23.44915022 40 40.460-12 30 40.10   ~8OFo 20.4 RVNEOCP291

Station data:
(291) LPL/Spacewatch II  (N31.961669 W111.599905)  US/Arizona.  Observers J.
   V. Scotti, R. S. McMillan. 1.8-m f/2.7 reflector + CCD.
(V00) Kitt Peak-Bok  (N31.963125 W111.600190)  US/Arizona. Measurers T.
   Beuden, V. F. Carvajal, D. Fay, J. B. Fazekas, D. C. Fuls, A. R. Gibbs, A.
   D. Grauer, H. Gröller, J. K. Hogan, R. A. Kowalski, S. M. Larson, G. J.
   Leonard, D. Rankin, R. L. Seaman, F. C. Shelly, K. W. Wierzchoś. 2.25-m
   reflector + 4x4K mosaic CCD.

Orbital elements:  C1FXP05
   Perihelion 2026 May 29.477093 +/- 83.2 TT = 11:27:00.8 (JD 2461189.977093)
Epoch 2026 Aug 23.0 TT = JDT 2461275.5   Earth MOID: 0.0020   Ve: 0.0131
M 109.099380555 +/- 90              Me: 0.0093                   AutoNEOCP
n   1.275674373 +/- 0.521           Peri.   45.856089 +/- 44
a   0.841994966 +/- 0.229           Node   133.999925 +/- 80
e   0.50258233 +/- 0.236            Incl.    1.318334 +/- 44
P   0.773/282.198d         H 24.99  G  0.15   U 12.3  SR
q 0.418823167 +/- 0.291    Q 1.265166764 +/- 1.84         (J2000 ecliptic)
From 7 observations 2026 Aug. 23 (55.8 min); mean residual 0".24
Residuals in arcseconds: 
260823 V00  .58+  .18+    260823 V00  .39-  .14-    260823 291  .02+  .05+    
260823 V00  .18-  .05-    260823 291  .06-  .18+    
260823 V00  .30-  .10-    260823 291  .33+  .12-    

Ephemerides (geocentric):
Date (UTC) HH   RA             Dec           delta  r     elong  mag " sig PA
---- --------  ------------   ------------  ------ ------ -----  --- --------
2026 08 26 01  22 15 52.529   -14 49 18.97  .12441 1.1347 175.7 21.1 9772 110
2026 08 26 02  22 15 30.996   -14 51 13.93  .12464 1.1350 175.7 21.1 172' 110
2026 08 26 03  22 15 09.536   -14 53 08.32  .12487 1.1352 175.6 21.1 181' 110
2026 08 26 04  22 14 48.150   -14 55 02.15  .12510 1.1354 175.6 21.1 191' 110
2026 08 26 05  22 14 26.835   -14 56 55.42  .12533 1.1356 175.5 21.1 202' 110
2026 08 26 06  22 14 05.593   -14 58 48.13  .12556 1.1358 175.4 21.1 214' 110
2026 08 26 07  22 13 44.423   -15 00 40.29  .12579 1.1360 175.3 21.1 226' 109
2026 08 26 08  22 13 23.325   -15 02 31.89  .12602 1.1362 175.3 21.1 239' 109
2026 08 26 09  22 13 02.299   -15 04 22.95  .12625 1.1364 175.2 21.2 253' 109
2026 08 26 10  22 12 41.344   -15 06 13.46  .12649 1.1366 175.1 21.2 267' 109
2026 08 26 11  22 12 20.461   -15 08 03.42  .12672 1.1368 175.0 21.2 283' 108
2026 08 26 12  22 11 59.649   -15 09 52.84  .12695 1.1370 174.9 21.2 300' 108
2026 08 26 13  22 11 38.908   -15 11 41.72  .12719 1.1373 174.8 21.2 319' 108
2026 08 26 14  22 11 18.237   -15 13 30.06  .12742 1.1375 174.8 21.2 338' 107
2026 08 26 15  22 10 57.637   -15 15 17.87  .12765 1.1377 174.7 21.2 359' 107
2026 08 26 16  22 10 37.108   -15 17 05.14  .12789 1.1379 174.6 21.2 381' 107
2026 08 26 17  22 10 16.649   -15 18 51.88  .12812 1.1381 174.5 21.2 405' 106
2026 08 26 18  22 09 56.259   -15 20 38.10  .12836 1.1383 174.4 21.2 430' 106
2026 08 26 19  22 09 35.940   -15 22 23.79  .12859 1.1385 174.3 21.2 457' 105
2026 08 26 20  22 09 15.690   -15 24 08.96  .12883 1.1387 174.2 21.2 486' 105
2026 08 26 21  22 08 55.509   -15 25 53.60  .12907 1.1389 174.1 21.3 516' 104
2026 08 26 22  22 08 35.398   -15 27 37.73  .12930 1.1391 174.0 21.3 548' 103
2026 08 26 23  22 08 15.355   -15 29 21.35  .12954 1.1393 173.9 21.3 582' 103
2026 08 27 00  22 07 55.382   -15 31 04.44  .12978 1.1395 173.8 21.3 617' 102
2026 08 27 01  22 07 35.477   -15 32 47.03  .13002 1.1397 173.7 21.3 653' 101
2026 08 27 02  22 07 15.640   -15 34 29.11  .13026 1.1399 173.6 21.3 691' 100
2026 08 27 03  22 06 55.872   -15 36 10.69  .13049 1.1402 173.5 21.3 729' 100
2026 08 27 04  22 06 36.171   -15 37 51.76  .13073 1.1404 173.4 21.3 767'  99
2026 08 27 05  22 06 16.539   -15 39 32.32  .13097 1.1406 173.3 21.3 806'  98
2026 08 27 06  22 05 56.974   -15 41 12.39  .13121 1.1408 173.2 21.3 844'  97
2026 08 27 07  22 05 37.476   -15 42 51.97  .13145 1.1410 173.1 21.3 881'  96
2026 08 27 08  22 05 18.046   -15 44 31.04  .13169 1.1412 173.0 21.4 918'  95
2026 08 27 09  22 04 58.682   -15 46 09.63  .13194 1.1414 172.9 21.4 954'  95
2026 08 27 10  22 04 39.386   -15 47 47.73  .13218 1.1416 172.8 21.4 988'  94
2026 08 27 11  22 04 20.156   -15 49 25.33  .13242 1.1418 172.7 21.4  17d  93
2026 08 27 12  22 04 00.992   -15 51 02.46  .13266 1.1420 172.6 21.4  18d  93
2026 08 27 13  22 03 41.895   -15 52 39.10  .13290 1.1422 172.5 21.4  18d  92
2026 08 27 14  22 03 22.864   -15 54 15.26  .13315 1.1424 172.4 21.4  19d  91
2026 08 27 15  22 03 03.898   -15 55 50.94  .13339 1.1426 172.3 21.4  19d  91
2026 08 27 16  22 02 44.998   -15 57 26.15  .13363 1.1428 172.2 21.4  19d  90
2026 08 27 17  22 02 26.164   -15 59 00.88  .13388 1.1430 172.1 21.4  20d  90
2026 08 27 18  22 02 07.394   -16 00 35.14  .13412 1.1432 172.0 21.4  20d  89
2026 08 27 19  22 01 48.690   -16 02 08.93  .13437 1.1434 171.9 21.4  20d  89
2026 08 27 20  22 01 30.051   -16 03 42.26  .13461 1.1436 171.8 21.5  21d  89
2026 08 27 21  22 01 11.476   -16 05 15.12  .13486 1.1438 171.6 21.5  21d  88
2026 08 27 22  22 00 52.965   -16 06 47.52  .13510 1.1440 171.5 21.5  21d  88
2026 08 27 23  22 00 34.519   -16 08 19.45  .13535 1.1442 171.4 21.5  22d  88
2026 08 28 00  22 00 16.137   -16 09 50.93  .13560 1.1444 171.3 21.5  22d  87